NORTHEAST SUFFOLK  -  Winter Weather Advisory Winter Weather Advisory        NORTHERN NASSAU  -  Winter Weather Advisory Winter Weather Advisory        NORTHWEST SUFFOLK  -  Winter Weather Advisory Winter Weather Advisory        SOUTHEAST SUFFOLK  -  Winter Weather Advisory Winter Weather Advisory        SOUTHERN NASSAU  -  Winter Weather Advisory Winter Weather Advisory        SOUTHWEST SUFFOLK  -  Winter Weather Advisory Winter Weather Advisory      

Active alerts

Northern Nassau
  Details for Northern Nassau Winter Weather Advisory
Southern Nassau
  Details for Southern Nassau Winter Weather Advisory
Northwest Suffolk
  Details for Northwest Suffolk Winter Weather Advisory
Southwest Suffolk
  Details for Southwest Suffolk Winter Weather Advisory
Northeast Suffolk
  Details for Northeast Suffolk Winter Weather Advisory
Southeast Suffolk
  Details for Southeast Suffolk Winter Weather Advisory


WXM80 ListenWXM80 Stop

You find our weather info also at:

UK Metoffice

WeatherCloud

Weather Underground

Northeastern Weather Network

AWEKAS

Citizen Weather Observer Program (CWOP)

HAMweather, WeatherForYou, PWS Weather


Weather Underground History page Text

Daily Summary for June 24, 2016 Units:  English    Metric   Both
« Previous Day
Next Day »
Daily Weekly Monthly Yearly Custom
  High: Low: Average:
Temperature: 83.2 °F 63.2 °F 72.1 °F
Dew Point: 66.0 °F 56.0 °F 61 °F
Humidity: 96 % 44 % 70 %
Wind Speed: 8.8 mph 0.0 mph 1.5 mph
Wind Gust: 11.5 mph - -
Wind:- - East
Pressure: 30.09 in 29.85 in -
Precipitation: 0.00 in    
Historical Graphs
 
 
Tabular Data for June 24, 2016
Time Temperature Dew Point Pressure Wind Wind Speed Wind Gust Humidity Rainfall Rate (Hourly)
00:00 67.6 °F 64.6 °F 29.85 in Calm     90 % 0.00 in
00:05 67.5 °F 64.5 °F 29.85 in Calm     90 % 0.00 in
00:10 67.4 °F 64.4 °F 29.85 in Calm     90 % 0.00 in
00:15 67.2 °F 64.2 °F 29.85 in Calm     90 % 0.00 in
00:20 67.1 °F 64.1 °F 29.85 in Calm     90 % 0.00 in
00:25 67.0 °F 64.0 °F 29.85 in Calm     90 % 0.00 in
00:30 66.9 °F 64.2 °F 29.85 in Calm     91 % 0.00 in
00:35 66.8 °F 64.1 °F 29.85 in Calm     91 % 0.00 in
00:40 66.7 °F 64.0 °F 29.85 in Calm     91 % 0.00 in
00:45 66.6 °F 63.9 °F 29.85 in Calm     91 % 0.00 in
00:50 66.5 °F 63.8 °F 29.85 in Calm     91 % 0.00 in
00:56 66.4 °F 63.7 °F 29.85 in Calm     91 % 0.00 in
01:06 66.3 °F 63.6 °F 29.85 in Calm     91 % 0.00 in
01:11 66.2 °F 63.8 °F 29.85 in Calm     92 % 0.00 in
01:16 66.1 °F 63.7 °F 29.85 in Calm     92 % 0.00 in
01:21 66.0 °F 63.6 °F 29.85 in Calm     92 % 0.00 in
01:26 65.9 °F 63.5 °F 29.86 in Calm     92 % 0.00 in
01:36 65.8 °F 63.4 °F 29.86 in Calm     92 % 0.00 in
01:41 65.7 °F 63.3 °F 29.86 in Calm     92 % 0.00 in
01:47 65.6 °F 63.2 °F 29.86 in Calm     92 % 0.00 in
01:52 65.6 °F 63.2 °F 29.87 in Calm     92 % 0.00 in
01:57 65.5 °F 63.1 °F 29.87 in Calm     92 % 0.00 in
02:02 65.4 °F 63.0 °F 29.87 in Calm     92 % 0.00 in
02:07 65.3 °F 62.9 °F 29.87 in Calm     92 % 0.00 in
02:12 65.3 °F 62.9 °F 29.88 in Calm     92 % 0.00 in
02:17 65.2 °F 62.8 °F 29.88 in Calm     92 % 0.00 in
02:22 65.2 °F 62.8 °F 29.88 in Calm     92 % 0.00 in
02:27 65.2 °F 63.1 °F 29.88 in Calm     93 % 0.00 in
02:32 65.1 °F 63.0 °F 29.88 in Calm     93 % 0.00 in
02:38 65.0 °F 62.6 °F 29.88 in Calm     92 % 0.00 in
02:43 64.9 °F 62.5 °F 29.88 in Calm     92 % 0.00 in
02:48 64.8 °F 62.4 °F 29.88 in Calm     92 % 0.00 in
02:53 64.7 °F 62.3 °F 29.88 in Calm     92 % 0.00 in
02:58 64.7 °F 62.6 °F 29.88 in Calm     93 % 0.00 in
03:08 64.5 °F 62.4 °F 29.88 in Calm     93 % 0.00 in
03:13 64.4 °F 62.3 °F 29.88 in Calm     93 % 0.00 in
03:18 64.4 °F 62.3 °F 29.89 in Calm     93 % 0.00 in
03:23 64.3 °F 62.2 °F 29.89 in Calm     93 % 0.00 in
03:29 64.3 °F 62.2 °F 29.89 in Calm     93 % 0.00 in
03:34 64.2 °F 62.1 °F 29.88 in Calm     93 % 0.00 in
03:39 64.1 °F 62.0 °F 29.89 in Calm     93 % 0.00 in
03:44 64.1 °F 62.0 °F 29.89 in Calm     93 % 0.00 in
03:49 64.1 °F 62.0 °F 29.89 in Calm     93 % 0.00 in
03:54 64.0 °F 61.9 °F 29.89 in Calm     93 % 0.00 in
03:59 64.0 °F 61.9 °F 29.89 in Calm     93 % 0.00 in
04:04 63.9 °F 61.8 °F 29.89 in Calm     93 % 0.00 in
04:09 63.9 °F 61.8 °F 29.89 in Calm     93 % 0.00 in
04:14 63.9 °F 61.8 °F 29.90 in Calm     93 % 0.00 in
04:20 63.8 °F 61.7 °F 29.90 in Calm     93 % 0.00 in
04:25 63.7 °F 61.6 °F 29.90 in Calm     93 % 0.00 in
04:30 63.7 °F 61.6 °F 29.90 in Calm     93 % 0.00 in
04:35 63.6 °F 61.5 °F 29.90 in Calm     93 % 0.00 in
04:40 63.6 °F 61.5 °F 29.90 in Calm     93 % 0.00 in
04:45 63.5 °F 61.7 °F 29.90 in Calm     94 % 0.00 in
04:50 63.4 °F 61.6 °F 29.91 in Calm     94 % 0.00 in
04:55 63.4 °F 61.6 °F 29.91 in Calm     94 % 0.00 in
05:00 63.4 °F 61.6 °F 29.91 in Calm     94 % 0.00 in
05:05 63.4 °F 61.6 °F 29.92 in Calm     94 % 0.00 in
05:11 63.3 °F 61.5 °F 29.92 in Calm     94 % 0.00 in
05:16 63.3 °F 61.5 °F 29.93 in Calm     94 % 0.00 in
05:21 63.2 °F 61.4 °F 29.93 in Calm     94 % 0.00 in
05:26 63.2 °F 61.4 °F 29.93 in Calm     94 % 0.00 in
05:31 63.3 °F 61.5 °F 29.93 in Calm     94 % 0.00 in
05:36 63.4 °F 61.9 °F 29.93 in SE 0.6 mph 1.2 mph 95 % 0.00 in
05:41 63.5 °F 62.0 °F 29.94 in East 0.7 mph 2.3 mph 95 % 0.00 in
05:46 63.8 °F 62.6 °F 29.94 in East 0.8 mph 2.3 mph 96 % 0.00 in
05:51 63.9 °F 62.7 °F 29.94 in ENE 1.3 mph 3.5 mph 96 % 0.00 in
05:56 64.2 °F 63.0 °F 29.94 in ENE 1.6 mph 4.0 mph 96 % 0.00 in
06:02 64.5 °F 63.3 °F 29.94 in NE 2.9 mph 3.5 mph 96 % 0.00 in
06:07 64.8 °F 63.6 °F 29.94 in ENE 1.0 mph 3.5 mph 96 % 0.00 in
06:12 64.7 °F 63.5 °F 29.94 in NE 5.1 mph 10.0 mph 96 % 0.00 in
06:17 64.5 °F 63.0 °F 29.94 in ENE 3.6 mph 4.6 mph 95 % 0.00 in
06:22 64.5 °F 62.7 °F 29.94 in NE 4.0 mph 6.9 mph 94 % 0.00 in
06:27 64.6 °F 61.9 °F 29.94 in ENE 5.1 mph 10.0 mph 91 % 0.00 in
06:32 64.9 °F 61.6 °F 29.94 in ENE 3.3 mph 7.0 mph 89 % 0.00 in
06:42 65.6 °F 61.0 °F 29.95 in NE 3.3 mph 4.6 mph 85 % 0.00 in
06:47 66.0 °F 60.7 °F 29.95 in ENE 2.7 mph 5.8 mph 83 % 0.00 in
06:53 66.5 °F 61.2 °F 29.95 in NE 2.4 mph 6.9 mph 83 % 0.00 in
06:58 66.9 °F 60.9 °F 29.95 in ENE 3.4 mph 5.8 mph 81 % 0.00 in
07:03 67.4 °F 61.4 °F 29.96 in ENE 3.0 mph 4.6 mph 81 % 0.00 in
07:08 67.8 °F 61.8 °F 29.96 in ENE 1.6 mph 3.5 mph 81 % 0.00 in
07:13 68.3 °F 61.5 °F 29.96 in ENE 2.0 mph 3.5 mph 79 % 0.00 in
07:18 68.7 °F 61.2 °F 29.97 in ENE 1.5 mph 2.3 mph 77 % 0.00 in
07:23 69.1 °F 60.8 °F 29.97 in ENE 1.7 mph 2.3 mph 75 % 0.00 in
07:28 69.5 °F 60.8 °F 29.97 in ENE 2.0 mph 3.0 mph 74 % 0.00 in
07:33 69.7 °F 59.9 °F 29.98 in ENE 3.1 mph 3.5 mph 71 % 0.00 in
07:38 69.8 °F 59.6 °F 29.98 in NE 4.0 mph 6.9 mph 70 % 0.00 in
07:44 69.8 °F 60.0 °F 29.98 in ENE 3.8 mph 10.4 mph 71 % 0.00 in
07:49 69.7 °F 59.9 °F 29.98 in East 4.8 mph 9.2 mph 71 % 0.00 in
07:54 69.8 °F 60.8 °F 29.99 in ENE 1.4 mph 3.0 mph 73 % 0.00 in
07:59 69.9 °F 61.2 °F 29.99 in ENE 2.7 mph 4.6 mph 74 % 0.00 in
08:04 69.7 °F 60.3 °F 29.99 in ENE 4.2 mph 5.8 mph 72 % 0.00 in
08:09 69.7 °F 61.4 °F 29.99 in ENE 2.1 mph 3.0 mph 75 % 0.00 in
08:14 69.7 °F 60.7 °F 29.99 in NE 3.2 mph 6.9 mph 73 % 0.00 in
08:19 69.7 °F 60.7 °F 29.99 in ENE 2.7 mph 4.6 mph 73 % 0.00 in
08:24 69.7 °F 60.7 °F 30.00 in ENE 2.0 mph 3.5 mph 73 % 0.00 in
08:29 69.9 °F 61.2 °F 30.00 in East 1.8 mph 3.5 mph 74 % 0.00 in
08:35 70.0 °F 61.3 °F 30.00 in ENE 2.2 mph 3.5 mph 74 % 0.00 in
08:40 70.3 °F 61.6 °F 30.00 in ENE 2.1 mph 3.5 mph 74 % 0.00 in
08:45 70.6 °F 61.5 °F 30.00 in ENE 2.4 mph 3.5 mph 73 % 0.00 in
08:50 70.8 °F 60.9 °F 30.00 in East 2.7 mph 6.0 mph 71 % 0.00 in
08:55 70.8 °F 61.3 °F 30.00 in ENE 2.1 mph 4.0 mph 72 % 0.00 in
09:00 70.7 °F 60.8 °F 30.00 in ENE 2.7 mph 4.6 mph 71 % 0.00 in
09:05 70.6 °F 60.7 °F 30.00 in ENE 4.4 mph 5.0 mph 71 % 0.00 in
09:10 70.3 °F 60.4 °F 30.00 in NE 3.2 mph 5.8 mph 71 % 0.00 in
09:15 70.2 °F 61.1 °F 30.01 in ENE 2.0 mph 4.6 mph 73 % 0.00 in
09:20 70.3 °F 61.6 °F 30.01 in ENE 1.4 mph 2.3 mph 74 % 0.00 in
09:26 70.5 °F 62.2 °F 30.01 in ENE 1.9 mph 2.3 mph 75 % 0.00 in
09:31 70.5 °F 61.4 °F 30.01 in ENE 2.9 mph 5.0 mph 73 % 0.00 in
09:36 70.6 °F 62.3 °F 30.01 in NE 1.4 mph 3.5 mph 75 % 0.00 in
09:41 70.7 °F 62.0 °F 30.01 in NE 3.3 mph 4.6 mph 74 % 0.00 in
09:46 70.8 °F 62.5 °F 30.01 in East 1.8 mph 3.0 mph 75 % 0.00 in
09:51 71.2 °F 62.5 °F 30.02 in ENE 1.6 mph 3.0 mph 74 % 0.00 in
09:56 71.9 °F 62.0 °F 30.02 in NE 2.4 mph 5.0 mph 71 % 0.00 in
10:01 72.8 °F 62.0 °F 30.02 in ENE 2.1 mph 3.5 mph 69 % 0.00 in
10:06 73.6 °F 62.4 °F 30.02 in ENE 1.7 mph 3.5 mph 68 % 0.00 in
10:11 74.4 °F 62.3 °F 30.02 in ENE 2.0 mph 6.9 mph 66 % 0.00 in
10:17 75.1 °F 63.4 °F 30.02 in ENE 1.8 mph 3.5 mph 67 % 0.00 in
10:22 75.9 °F 63.3 °F 30.03 in East 1.3 mph 3.5 mph 65 % 0.00 in
10:27 76.3 °F 62.8 °F 30.02 in ENE 2.9 mph 5.0 mph 63 % 0.00 in
10:32 76.4 °F 63.3 °F 30.03 in ENE 3.6 mph 5.8 mph 64 % 0.00 in
10:37 76.4 °F 62.4 °F 30.03 in East 5.0 mph 8.1 mph 62 % 0.00 in
10:42 76.2 °F 63.6 °F 30.03 in ENE 1.9 mph 3.5 mph 65 % 0.00 in
10:47 76.8 °F 64.1 °F 30.03 in East 1.8 mph 3.0 mph 65 % 0.00 in
10:52 77.4 °F 63.8 °F 30.03 in ENE 2.6 mph 4.6 mph 63 % 0.00 in
10:57 77.7 °F 63.2 °F 30.03 in ENE 2.1 mph 3.5 mph 61 % 0.00 in
11:02 78.1 °F 63.6 °F 30.03 in East 1.6 mph 3.5 mph 61 % 0.00 in
11:08 78.7 °F 63.6 °F 30.03 in East 1.6 mph 3.5 mph 60 % 0.00 in
11:13 79.1 °F 63.1 °F 30.03 in ENE 2.0 mph 3.5 mph 58 % 0.00 in
11:18 79.3 °F 63.2 °F 30.03 in NE 2.2 mph 4.0 mph 58 % 0.00 in
11:23 79.4 °F 62.3 °F 30.03 in NE 2.5 mph 6.0 mph 56 % 0.00 in
11:28 79.6 °F 63.5 °F 30.03 in ENE 3.8 mph 4.6 mph 58 % 0.00 in
11:33 79.8 °F 63.2 °F 30.03 in East 1.9 mph 3.5 mph 57 % 0.00 in
11:38 80.1 °F 63.5 °F 30.04 in ENE 3.9 mph 9.2 mph 57 % 0.00 in
11:43 79.8 °F 62.2 °F 30.04 in ENE 3.8 mph 6.9 mph 55 % 0.00 in
11:54 79.2 °F 62.1 °F 30.03 in East 4.0 mph 6.9 mph 56 % 0.00 in
11:59 79.1 °F 62.6 °F 30.04 in ENE 3.3 mph 4.6 mph 57 % 0.00 in
12:04 79.3 °F 63.7 °F 30.04 in ENE 2.4 mph 4.6 mph 59 % 0.00 in
12:09 79.3 °F 62.2 °F 30.04 in East 2.4 mph 3.5 mph 56 % 0.00 in
12:14 79.4 °F 62.8 °F 30.04 in East 2.1 mph 3.5 mph 57 % 0.00 in
12:19 79.9 °F 62.8 °F 30.03 in ENE 2.7 mph 10.4 mph 56 % 0.00 in
12:24 80.4 °F 64.8 °F 30.03 in NE 1.7 mph 3.0 mph 59 % 0.00 in
12:29 80.9 °F 64.2 °F 30.03 in ENE 2.8 mph 5.0 mph 57 % 0.00 in
12:34 81.1 °F 63.9 °F 30.03 in NE 2.4 mph 3.5 mph 56 % 0.00 in
12:39 81.3 °F 64.1 °F 30.04 in ENE 1.8 mph 4.6 mph 56 % 0.00 in
12:45 81.4 °F 63.7 °F 30.04 in ENE 2.4 mph 4.6 mph 55 % 0.00 in
12:50 81.3 °F 64.6 °F 30.03 in ENE 1.8 mph 6.9 mph 57 % 0.00 in
12:55 81.7 °F 64.5 °F 30.03 in East 3.5 mph 3.5 mph 56 % 0.00 in
13:00 81.8 °F 65.1 °F 30.03 in East 1.6 mph 3.5 mph 57 % 0.00 in
13:05 82.1 °F 64.8 °F 30.03 in ENE 3.3 mph 6.9 mph 56 % 0.00 in
13:10 82.4 °F 63.0 °F 30.03 in ENE 4.1 mph 6.9 mph 52 % 0.00 in
13:15 82.1 °F 64.3 °F 30.03 in ENE 2.7 mph 5.8 mph 55 % 0.00 in
13:20 82.2 °F 64.4 °F 30.03 in NE 2.4 mph 5.0 mph 55 % 0.00 in
13:25 82.0 °F 64.2 °F 30.02 in ENE 2.8 mph 4.0 mph 55 % 0.00 in
13:30 82.1 °F 63.8 °F 30.02 in ENE 3.6 mph 6.9 mph 54 % 0.00 in
13:36 81.8 °F 64.6 °F 30.03 in ENE 1.3 mph 11.5 mph 56 % 0.00 in
13:41 82.0 °F 63.7 °F 30.03 in ENE 3.3 mph 6.9 mph 54 % 0.00 in
13:46 81.5 °F 63.8 °F 30.03 in ENE 3.4 mph 8.1 mph 55 % 0.00 in
13:51 81.0 °F 63.3 °F 30.03 in ENE 2.8 mph 4.6 mph 55 % 0.00 in
13:56 81.3 °F 63.6 °F 30.03 in NE 4.7 mph 8.0 mph 55 % 0.00 in
14:01 81.1 °F 62.9 °F 30.03 in ENE 2.4 mph 9.2 mph 54 % 0.00 in
14:06 81.0 °F 63.8 °F 30.03 in NE 1.8 mph 4.6 mph 56 % 0.00 in
14:11 81.2 °F 64.0 °F 30.03 in ENE 3.7 mph 5.0 mph 56 % 0.00 in
14:16 81.0 °F 62.3 °F 30.03 in ENE 3.3 mph 6.9 mph 53 % 0.00 in
14:21 80.7 °F 62.5 °F 30.03 in ENE 2.0 mph 4.6 mph 54 % 0.00 in
14:27 80.9 °F 63.2 °F 30.03 in East 2.1 mph 3.5 mph 55 % 0.00 in
14:32 80.6 °F 62.4 °F 30.03 in ENE 2.3 mph 4.6 mph 54 % 0.00 in
14:37 80.7 °F 63.0 °F 30.03 in ENE 1.9 mph 4.6 mph 55 % 0.00 in
14:42 81.4 °F 65.2 °F 30.03 in ENE 1.3 mph 2.3 mph 58 % 0.00 in
14:47 81.7 °F 64.5 °F 30.03 in ENE 1.6 mph 3.0 mph 56 % 0.00 in
14:52 82.2 °F 66.0 °F 30.03 in ENE 1.6 mph 3.5 mph 58 % 0.00 in
14:57 82.5 °F 64.2 °F 30.03 in East 2.1 mph 3.5 mph 54 % 0.00 in
15:02 82.6 °F 63.7 °F 30.03 in East 2.1 mph 3.5 mph 53 % 0.00 in
15:07 82.9 °F 64.5 °F 30.04 in East 2.0 mph 3.5 mph 54 % 0.00 in
15:12 82.5 °F 62.5 °F 30.04 in ENE 2.3 mph 3.5 mph 51 % 0.00 in
15:22 82.5 °F 63.1 °F 30.04 in ENE 1.8 mph 3.0 mph 52 % 0.00 in
15:33 82.5 °F 64.2 °F 30.04 in ENE 1.5 mph 2.3 mph 54 % 0.00 in
15:38 82.6 °F 65.8 °F 30.04 in NE 1.3 mph 5.0 mph 57 % 0.00 in
15:43 82.5 °F 64.7 °F 30.04 in NE 1.7 mph 2.3 mph 55 % 0.00 in
15:48 82.4 °F 64.6 °F 30.04 in ENE 1.3 mph 2.3 mph 55 % 0.00 in
15:53 82.4 °F 64.6 °F 30.04 in ENE 1.3 mph 3.0 mph 55 % 0.00 in
15:58 82.1 °F 62.7 °F 30.04 in ENE 1.2 mph 2.3 mph 52 % 0.00 in
16:03 81.8 °F 63.5 °F 30.04 in ENE 0.7 mph 2.3 mph 54 % 0.00 in
16:08 82.0 °F 62.6 °F 30.04 in ESE 1.9 mph 3.5 mph 52 % 0.00 in
16:13 82.6 °F 60.3 °F 30.03 in SE 2.8 mph 5.0 mph 47 % 0.00 in
16:19 83.0 °F 60.1 °F 30.03 in SE 6.3 mph 10.4 mph 46 % 0.00 in
16:24 83.1 °F 61.4 °F 30.03 in SE 1.2 mph 6.0 mph 48 % 0.00 in
16:29 83.2 °F 61.5 °F 30.03 in SE 1.4 mph 5.0 mph 48 % 0.00 in
16:34 83.2 °F 60.3 °F 30.03 in ESE 2.4 mph 6.9 mph 46 % 0.00 in
16:39 83.2 °F 59.0 °F 30.03 in SE 5.9 mph 11.5 mph 44 % 0.00 in
16:44 83.2 °F 61.5 °F 30.03 in SE 1.0 mph 2.3 mph 48 % 0.00 in
16:49 83.2 °F 59.6 °F 30.03 in ESE 1.4 mph 3.5 mph 45 % 0.00 in
16:54 82.8 °F 59.9 °F 30.03 in ESE 0.7 mph 2.3 mph 46 % 0.00 in
16:59 82.5 °F 59.6 °F 30.03 in SE 2.5 mph 7.0 mph 46 % 0.00 in
17:10 82.3 °F 58.8 °F 30.03 in SE 1.9 mph 6.9 mph 45 % 0.00 in
17:15 81.8 °F 59.0 °F 30.03 in ESE 1.0 mph 3.5 mph 46 % 0.00 in
17:20 81.6 °F 58.8 °F 30.03 in SE 1.2 mph 4.6 mph 46 % 0.00 in
17:25 81.6 °F 59.4 °F 30.04 in SE 1.9 mph 6.0 mph 47 % 0.00 in
17:30 81.5 °F 58.1 °F 30.03 in SE 2.3 mph 5.8 mph 45 % 0.00 in
17:35 81.2 °F 57.2 °F 30.04 in SE 3.1 mph 4.6 mph 44 % 0.00 in
17:40 80.9 °F 57.6 °F 30.03 in SE 1.3 mph 3.5 mph 45 % 0.00 in
17:45 80.6 °F 57.9 °F 30.03 in SE 0.2 mph 2.3 mph 46 % 0.00 in
17:50 80.2 °F 58.1 °F 30.03 in SE 2.2 mph 4.6 mph 47 % 0.00 in
18:01 79.6 °F 58.2 °F 30.03 in SE 2.6 mph 8.1 mph 48 % 0.00 in
18:06 79.4 °F 58.6 °F 30.03 in SE 3.7 mph 8.1 mph 49 % 0.00 in
18:11 79.1 °F 58.3 °F 30.03 in SE 5.1 mph 10.4 mph 49 % 0.00 in
18:16 78.7 °F 57.9 °F 30.03 in SE 1.1 mph 5.8 mph 49 % 0.00 in
18:21 78.3 °F 57.6 °F 30.03 in SE 3.6 mph 8.1 mph 49 % 0.00 in
18:26 77.9 °F 57.8 °F 30.03 in SE 3.0 mph 4.6 mph 50 % 0.00 in
18:31 77.3 °F 57.2 °F 30.03 in SE 3.6 mph 10.4 mph 50 % 0.00 in
18:36 77.0 °F 57.5 °F 30.04 in SSE 4.9 mph 8.1 mph 51 % 0.00 in
18:41 76.5 °F 57.6 °F 30.04 in SE 3.0 mph 4.6 mph 52 % 0.00 in
18:47 76.1 °F 56.7 °F 30.04 in SE 8.8 mph 11.5 mph 51 % 0.00 in
18:52 75.8 °F 56.9 °F 30.04 in SSE 4.0 mph 10.4 mph 52 % 0.00 in
18:57 75.5 °F 56.6 °F 30.04 in SE 3.5 mph 11.5 mph 52 % 0.00 in
19:02 75.2 °F 56.4 °F 30.04 in ESE 6.8 mph 10.4 mph 52 % 0.00 in
19:07 74.9 °F 57.1 °F 30.04 in SE 1.1 mph 4.6 mph 54 % 0.00 in
19:12 74.7 °F 56.9 °F 30.05 in SSE 4.4 mph 6.9 mph 54 % 0.00 in
19:17 74.6 °F 56.9 °F 30.05 in SE 2.1 mph 3.5 mph 54 % 0.00 in
19:22 74.5 °F 56.8 °F 30.05 in SE 3.3 mph 5.8 mph 54 % 0.00 in
19:27 74.3 °F 56.6 °F 30.05 in SE 2.1 mph 3.5 mph 54 % 0.00 in
19:32 74.0 °F 56.8 °F 30.05 in SE 1.8 mph 4.6 mph 55 % 0.00 in
19:38 73.9 °F 57.2 °F 30.05 in SE 0.3 mph 4.6 mph 56 % 0.00 in
19:43 73.6 °F 56.9 °F 30.05 in SE 1.8 mph 4.0 mph 56 % 0.00 in
19:48 73.5 °F 57.3 °F 30.06 in SE 1.1 mph 4.6 mph 57 % 0.00 in
19:53 73.1 °F 57.4 °F 30.06 in SSE 3.3 mph 5.8 mph 58 % 0.00 in
19:58 72.9 °F 57.3 °F 30.06 in SE 0.6 mph 2.3 mph 58 % 0.00 in
20:03 72.6 °F 57.4 °F 30.06 in Calm     59 % 0.00 in
20:08 72.2 °F 57.5 °F 30.06 in Calm     60 % 0.00 in
20:13 72.0 °F 57.8 °F 30.06 in Calm     61 % 0.00 in
20:18 71.7 °F 58.4 °F 30.06 in Calm     63 % 0.00 in
20:23 71.3 °F 57.6 °F 30.07 in Calm     62 % 0.00 in
20:29 71.1 °F 57.4 °F 30.07 in ESE 0.1 mph   62 % 0.00 in
20:34 71.0 °F 57.3 °F 30.07 in ESE 0.2 mph 2.3 mph 62 % 0.00 in
20:39 70.6 °F 57.8 °F 30.07 in Calm     64 % 0.00 in
20:49 70.0 °F 57.7 °F 30.07 in Calm     65 % 0.00 in
20:54 69.8 °F 57.9 °F 30.07 in Calm     66 % 0.00 in
20:59 69.4 °F 57.5 °F 30.07 in Calm     66 % 0.00 in
21:04 69.2 °F 57.4 °F 30.07 in Calm     66 % 0.00 in
21:09 69.0 °F 56.7 °F 30.07 in Calm     65 % 0.00 in
21:14 68.8 °F 57.0 °F 30.08 in Calm     66 % 0.00 in
21:20 68.6 °F 56.8 °F 30.08 in Calm     66 % 0.00 in
21:25 68.5 °F 56.7 °F 30.08 in Calm     66 % 0.00 in
21:30 68.3 °F 56.9 °F 30.08 in Calm     67 % 0.00 in
21:35 68.0 °F 56.6 °F 30.08 in Calm     67 % 0.00 in
21:40 67.9 °F 56.5 °F 30.08 in Calm     67 % 0.00 in
21:45 67.7 °F 56.3 °F 30.09 in Calm     67 % 0.00 in
21:50 67.5 °F 56.2 °F 30.09 in Calm     67 % 0.00 in
22:00 67.1 °F 56.2 °F 30.09 in Calm     68 % 0.00 in
22:05 67.0 °F 56.1 °F 30.09 in Calm     68 % 0.00 in
22:11 66.8 °F 56.3 °F 30.09 in Calm     69 % 0.00 in
22:16 66.6 °F 56.1 °F 30.09 in Calm     69 % 0.00 in
22:21 66.5 °F 56.4 °F 30.09 in Calm     70 % 0.00 in
22:26 66.3 °F 56.2 °F 30.09 in Calm     70 % 0.00 in
22:31 66.1 °F 56.0 °F 30.09 in Calm     70 % 0.00 in
22:36 66.0 °F 56.3 °F 30.09 in Calm     71 % 0.00 in
22:41 65.8 °F 56.1 °F 30.09 in Calm     71 % 0.00 in
22:46 65.7 °F 56.4 °F 30.09 in Calm     72 % 0.00 in
22:51 65.5 °F 56.2 °F 30.09 in Calm     72 % 0.00 in
22:56 65.4 °F 56.1 °F 30.09 in Calm     72 % 0.00 in
23:02 65.2 °F 56.3 °F 30.09 in Calm     73 % 0.00 in
23:07 65.0 °F 56.1 °F 30.09 in Calm     73 % 0.00 in
23:12 64.9 °F 56.4 °F 30.09 in Calm     74 % 0.00 in
23:17 64.7 °F 56.6 °F 30.09 in Calm     75 % 0.00 in
23:22 64.5 °F 56.4 °F 30.09 in Calm     75 % 0.00 in
23:27 64.4 °F 56.3 °F 30.09 in Calm     75 % 0.00 in
23:32 64.2 °F 56.5 °F 30.09 in Calm     76 % 0.00 in
23:37 64.1 °F 56.4 °F 30.09 in Calm     76 % 0.00 in
23:42 63.9 °F 56.5 °F 30.09 in Calm     77 % 0.00 in
23:47 63.8 °F 56.4 °F 30.09 in Calm     77 % 0.00 in
23:53 63.6 °F 57.0 °F 30.09 in Calm     79 % 0.00 in
23:58 63.3 °F 56.7 °F 30.09 in Calm     79 % 0.00 in
Crab Meadow Weather
Compliments of Weather Underground - 3 mb

Script developed by  Jim McMurry - jmcmurry@mwt.net Adapted for the template by  Wim van der Kuil - Leuven-Template.eu

Astronomy: February 1865 is the only month recorded in history not to have a full moon.